Theta_e
328 327 326 326 326 326 327 327 328 327 326 325 329 328 325 325 325 325 327 321 328 334 333 333 332 331 329 328 326 325 324 322 321 319 318 318 317 317 316 316 316 316 315
328 325 324 324 326 325 327 326 327 325 326 326 324 327 325 325 325 324 325 324 325 330 334 334 334 334 333 332 330 329 327 325 323 321 320 319 318 317 317 316 316 316 316
328 325 323 323 325 325 326 327 326 325 326 325 323 323 324 325 324 324 323 324 324 323 327 331 333 333 334 335 334 333 331 329 326 323 322 321 319 319 318 318 317 316 316
328 326 323 323 324 324 325 325 324 324 324 320 321 321 322 323 324 324 323 323 322 321 321 326 329 329 330 330 331 331 331 332 330 327 324 322 321 320 320 319 318 318 317
328 326 324 323 323 324 324 324 322 324 321 319 320 319 321 321 322 323 321 320 319 318 317 321 322 322 325 327 328 329 329 329 331 329 328 325 324 323 322 321 320 319 319
328 326 324 322 323 324 323 322 321 322 320 318 319 318 318 319 320 320 319 320 318 318 317 317 315 315 317 322 324 326 328 329 328 329 329 327 327 326 324 324 323 322 321
327 325 324 322 322 323 323 321 320 320 319 318 317 315 316 316 316 314 316 316 316 316 315 315 314 314 314 320 321 321 322 324 325 325 325 326 326 326 326 326 325 325 324
326 324 323 321 322 322 321 320 318 315 318 318 313 311 309 311 311 313 313 314 312 313 314 313 311 309 309 309 308 310 309 311 312 312 313 314 315 316 317 318 319 320 321
325 324 323 322 321 321 320 319 318 317 313 313 314 312 303 305 307 309 309 306 304 300 300 301 299 298 297 295 297 298 303 304 306 307 307 308 310 311 312 314 315 316 316
324 323 322 322 321 321 319 318 319 317 316 311 308 311 309 307 304 303 300 297 298 297 296 296 295 295 294 294 295 296 298 300 301 303 304 305 306 307 308 309 310 311 313
322 322 321 320 319 319 318 317 313 314 313 311 308 306 308 307 303 302 304 298 295 293 293 293 292 292 292 292 293 293 296 298 299 299 300 301 303 305 307 309 310 311 311
300 305 304 303 303 302 301 299 297 297 296 294 293 292 292 293 294 296 296 296 294 290 291 291 290 291 291 291 292 292 292 295 296 297 297 297 299 300 302 304 305 306 307
294 294 295 294 294 294 295 293 291 290 290 289 289 287 288 286 288 291 290 291 290 291 290 289 290 290 291 290 290 292 290 292 292 293 292 292 294 295 296 297 298 299 300
290 291 290 290 291 290 290 289 288 287 287 286 285 285 285 284 285 285 285 285 287 288 288 288 290 290 290 289 288 287 285 286 287 288 288 289 290 290 291 292 293 294 294
288 288 287 286 286 285 285 285 283 282 282 282 282 282 282 282 283 283 283 283 283 281 284 287 285 287 285 284 285 281 281 283 284 285 286 286 287 288 289 289 290 291 292
284 284 283 283 282 282 282 281 280 280 279 280 280 279 279 280 280 280 280 279 279 278 278 281 281 280 280 281 282 279 279 281 281 282 283 284 285 286 286 287 287 288 289
280 280 280 279 279 279 280 279 279 279 278 278 279 278 277 278 277 278 277 277 275 276 274 277 278 279 278 278 278 277 277 276 277 279 281 282 283 283 283 284 285 286 287
279 279 279 279 279 278 278 278 277 277 276 276 276 276 276 277 275 275 275 274 274 275 274 273 275 275 275 275 274 273 275 275 274 276 279 279 279 280 281 281 282 282 282
278 278 277 277 277 277 277 277 277 276 275 274 274 274 274 275 274 275 274 273 273 274 273 272 272 274 274 274 272 272 272 271 273 275 275 276 277 278 278 278 278 278 278
278 278 278 277 276 275 275 275 274 274 273 274 274 274 273 274 274 274 274 273 273 271 271 271 270 270 271 272 270 268 267 269 268 270 272 272 273 273 274 274 275 274 275
277 278 277 277 277 277 276 273 273 272 271 271 272 274 273 274 276 276 275 273 273 271 270 269 269 269 268 267 266 266 265 266 267 267 267 267 267 267 267 270 271 272 274
276 276 276 276 276 278 279 278 275 272 272 272 271 271 272 272 274 275 275 275 274 270 268 268 268 266 266 265 265 265 265 263 261 267 264 263 265 265 266 266 271 273 274
276 275 276 277 276 277 280 278 276 274 273 272 271 270 270 271 272 272 272 272 271 272 272 269 266 265 264 265 266 264 264 263 262 263 263 260 264 263 265 266 270 272 273
273 274 274 275 276 278 279 278 277 273 272 272 271 270 269 269 272 272 269 268 267 267 268 268 266 265 266 267 266 265 264 262 262 263 264 258 262 261 264 265 270 271 272
272 272 273 273 274 276 279 278 274 273 272 271 270 269 268 269 273 274 268 265 265 266 268 269 268 269 269 269 268 265 259 258 257 259 262 260 261 261 261 262 264 270 271
272 272 272 272 273 273 278 277 274 272 269 269 268 267 269 270 272 272 267 263 264 265 262 262 261 263 264 264 267 264 261 257 257 256 262 259 259 260 257 261 262 262 262
Wind_Speed
10 9 8 7 6 4 5 5 5 5 5 5 5 5 5 4 5 2 5 12 11 12 15 16 16 17 16 15 15 15 15 16 15 15 14 13 13 13 13 13 13 13 13
11 10 9 10 6 4 4 4 5 5 4 3 3 6 5 3 3 3 4 7 11 11 12 14 14 18 19 20 20 20 19 20 19 19 19 18 17 16 16 16 16 16 16
11 11 9 10 9 5 5 4 4 4 4 4 5 3 5 5 3 3 3 4 5 9 10 14 15 15 15 17 21 21 21 22 21 20 19 18 18 19 19 18 17 17 17
11 10 8 8 8 7 4 4 4 3 3 4 4 4 4 4 5 5 4 4 4 5 9 13 14 15 15 16 18 18 18 20 23 23 23 22 21 20 20 19 18 18 19
13 10 7 8 9 8 4 4 2 4 3 3 4 3 4 4 4 3 4 4 4 4 3 7 12 12 13 16 17 19 19 19 18 24 24 25 24 24 23 23 22 21 22
11 7 7 6 9 8 5 5 3 3 3 3 3 3 4 3 4 4 4 4 4 6 5 6 2 3 7 12 15 17 19 20 21 20 22 25 26 27 26 26 26 25 24
11 4 5 6 4 7 7 6 4 4 2 2 3 0 1 2 3 3 3 4 5 4 4 2 1 2 3 8 9 11 13 15 19 20 20 19 21 22 25 26 25 25 27
10 8 10 7 4 5 6 5 5 2 2 1 3 2 2 3 4 6 5 4 2 1 2 3 6 8 7 6 13 18 16 16 17 19 20 20 20 20 19 20 20 22 22
9 9 8 10 8 4 5 6 5 6 3 2 3 3 1 4 1 2 0 6 8 8 7 8 11 11 10 8 10 13 19 18 17 17 17 17 19 19 19 20 21 23 24
11 10 10 7 8 6 6 5 6 5 5 4 1 3 1 2 0 2 3 4 7 8 8 6 7 9 9 6 11 14 15 16 16 17 17 17 17 18 19 21 22 23 25
7 10 7 4 5 4 5 2 4 3 3 3 3 4 4 4 4 1 4 2 4 6 6 6 6 6 8 7 6 9 17 17 16 17 18 19 20 21 21 23 23 24 25
8 12 15 11 12 12 10 9 13 16 10 11 9 10 7 4 3 2 3 1 4 3 5 5 6 5 4 4 7 10 14 15 16 16 18 20 20 20 22 22 24 25 26
10 13 14 16 12 14 14 13 16 16 14 12 12 10 8 8 6 4 6 2 2 1 3 4 4 2 3 2 3 7 11 16 17 19 20 20 20 20 21 23 24 26 27
12 14 16 20 18 18 16 16 13 13 14 14 15 12 9 8 10 8 3 4 0 4 2 3 1 2 3 5 10 15 8 17 21 22 21 20 21 22 23 24 25 26 27
12 15 23 21 18 19 19 16 14 16 15 14 13 15 10 11 9 8 9 8 4 3 2 3 4 6 7 6 7 8 9 18 21 22 21 22 23 24 24 26 27 28 29
17 17 22 23 20 19 18 18 16 17 15 11 11 14 12 9 9 8 8 7 7 4 3 4 3 5 8 8 9 7 7 16 19 20 23 26 25 27 28 29 30 31 31
21 20 22 21 19 19 17 17 17 15 16 14 13 14 14 11 8 8 7 6 6 5 4 4 5 9 10 9 8 8 10 10 9 23 25 28 29 30 31 32 32 30 28
21 19 20 20 18 17 16 18 17 15 15 15 14 14 12 8 10 8 6 7 7 6 5 9 10 7 9 7 7 12 9 9 10 17 26 27 30 31 28 27 32 31 31
20 18 20 19 18 17 16 16 15 14 14 13 11 12 10 11 10 7 7 7 7 7 6 7 8 8 8 8 10 9 11 11 11 21 25 27 25 29 30 31 37 39 38
20 18 18 18 17 16 15 13 13 13 12 10 9 11 11 11 12 10 8 7 6 7 7 7 8 8 8 9 9 12 13 11 12 13 17 21 23 32 33 32 33 32 33
18 16 17 17 15 13 11 11 11 10 10 10 10 9 11 14 20 17 9 10 9 8 8 8 9 9 9 12 13 12 13 13 12 12 13 13 14 13 14 23 26 31 33
16 16 17 15 14 11 24 22 12 9 10 10 10 8 8 11 15 20 21 20 16 12 11 10 9 12 14 14 12 13 13 14 13 5 16 14 13 14 14 13 29 35 36
14 17 15 13 14 13 22 21 20 9 9 9 10 11 11 10 13 14 18 19 17 19 17 12 12 12 15 14 15 15 14 14 15 15 13 16 14 16 15 17 32 36 39
14 13 13 14 14 15 24 20 18 9 9 11 11 11 12 13 16 16 14 14 13 12 12 10 12 12 12 13 11 12 15 14 14 13 11 16 16 16 16 15 35 38 39
11 10 12 13 12 14 25 23 16 11 11 11 11 11 12 12 22 24 14 13 12 12 13 20 19 22 22 23 19 11 10 12 15 17 10 12 14 18 19 19 17 30 37
11 9 11 10 12 13 23 26 17 7 10 8 10 9 14 18 22 22 12 11 11 11 11 11 12 15 16 16 23 11 10 12 13 17 7 12 17 13 16 12 13 17 17
Wind_Direction
168 159 159 158 166 158 179 162 167 179 189 193 169 184 202 184 183 182 165 184 191 198 210 210 207 210 216 221 219 216 213 209 207 211 213 218 223 228 232 240 245 248 251
167 166 162 157 151 163 181 176 168 168 177 169 199 191 205 181 212 248 137 178 193 201 220 238 240 231 222 219 223 223 219 219 215 212 216 213 214 224 228 231 240 248 252
162 166 163 161 154 160 181 166 148 153 165 172 199 222 169 177 205 230 218 178 187 208 216 234 249 257 263 258 251 239 231 228 223 221 225 227 226 225 230 233 233 241 249
167 163 167 163 150 151 157 150 157 161 198 164 162 201 169 165 193 214 225 215 170 195 225 230 237 249 258 265 274 276 271 249 236 230 227 226 229 233 237 239 241 244 247
177 162 170 163 151 156 146 145 175 151 177 164 169 186 171 183 205 226 234 237 225 218 207 220 226 237 251 263 271 276 276 277 269 242 236 230 232 235 236 240 239 238 242
150 156 156 158 159 148 143 138 161 189 163 164 151 206 186 193 202 207 225 228 227 230 233 236 228 256 259 278 286 287 286 283 280 275 254 244 242 242 238 241 242 242 242
137 114 122 131 145 154 153 153 150 189 197 134 114 306 336 293 246 229 224 230 232 235 246 254 279 344 333 336 338 330 331 328 333 335 337 299 291 289 265 260 266 259 255
141 130 141 147 188 136 137 147 155 116 133 211 123 67 230 253 256 221 208 226 286 298 6 28 23 23 24 25 32 38 30 16 357 346 340 338 334 330 324 319 311 304 296
148 149 169 151 155 147 152 161 156 153 157 187 174 187 200 227 236 44 329 47 44 48 29 37 38 35 36 43 36 19 15 10 3 356 350 345 335 329 322 312 306 301 295
161 150 162 168 167 163 160 167 165 166 155 184 167 240 226 131 10 289 68 60 68 58 42 25 36 39 23 31 37 23 11 3 358 352 344 340 332 325 318 311 306 301 297
153 166 146 157 156 152 168 102 64 22 13 51 37 21 45 47 41 335 293 54 90 52 57 44 41 40 39 17 25 8 357 352 352 347 342 341 335 329 322 314 307 300 292
38 34 69 57 63 58 58 73 71 66 67 77 66 57 45 34 24 15 64 9 43 48 60 54 47 38 26 12 2 2 351 349 343 341 338 331 325 321 315 310 306 303 301
45 46 67 71 58 69 68 68 73 70 66 69 65 67 60 53 26 14 60 342 31 55 68 63 52 18 355 299 295 324 348 350 350 340 333 331 327 324 321 316 314 309 307
55 61 72 69 68 64 67 68 66 70 62 65 61 61 56 45 43 32 17 5 318 19 60 24 84 336 355 356 20 13 359 349 339 335 331 333 329 323 318 314 312 310 306
63 67 69 68 61 67 63 63 65 61 60 58 62 59 53 49 42 30 31 30 354 1 343 20 15 33 2 353 351 4 348 337 337 333 334 329 326 319 318 314 311 308 304
62 64 68 66 62 60 68 68 67 65 67 59 57 58 53 44 44 38 30 27 26 12 342 356 6 351 335 341 341 344 328 339 332 329 331 324 321 319 315 313 310 306 305
66 63 68 73 69 65 66 73 71 70 69 66 59 57 56 43 42 34 28 25 19 9 343 297 343 329 327 333 341 354 341 332 331 333 327 325 320 320 315 312 309 307 307
66 66 71 72 71 67 65 68 70 65 63 60 55 54 49 43 45 32 27 12 16 3 318 325 317 327 327 334 347 337 335 333 327 324 320 322 316 310 310 317 313 309 312
75 69 70 67 64 66 65 62 67 70 68 66 62 54 43 43 35 24 22 14 8 348 337 317 311 322 327 331 340 328 327 325 322 325 322 315 319 322 321 315 307 306 301
72 66 69 71 68 63 62 62 62 63 60 55 58 58 44 35 31 11 14 6 1 353 340 328 325 326 326 340 335 331 327 329 325 320 316 318 327 314 310 308 304 303 297
67 69 66 63 62 69 67 59 57 62 62 56 41 41 45 31 24 15 9 1 357 352 345 336 330 329 338 343 339 331 319 322 322 311 316 319 311 298 297 300 302 298 295
73 70 64 64 62 65 65 68 71 63 59 54 47 34 37 26 5 10 10 3 6 357 351 340 343 342 335 333 327 328 324 326 321 312 318 308 300 297 296 296 293 298 300
66 65 63 65 68 62 59 59 55 54 57 53 46 29 22 15 354 3 9 4 8 358 357 356 343 334 327 323 323 326 317 310 309 307 309 301 298 294 294 286 292 295 296
62 59 58 56 54 52 52 48 48 46 48 44 44 31 21 5 356 360 3 0 358 349 349 353 331 324 314 319 317 312 317 305 292 290 301 291 300 292 290 291 293 290 289
70 66 56 51 50 46 45 41 37 33 32 34 34 23 12 355 355 357 5 352 342 339 352 336 334 326 323 322 319 321 309 310 306 300 310 281 298 305 298 293 282 284 289
64 65 68 53 51 41 39 37 40 27 26 20 19 8 3 355 358 358 17 352 335 339 347 339 323 317 315 306 312 305 301 298 297 300 309 298 300 310 302 278 283 292 280